This is the latest recevied weather packets stored in our database for station/object SQ2LXT-10. If no packets are shown the sender has not sent any weather packets the latest 10 day(s).
| Time | Temp. | Humidity | Pressure | Rain* | Wind** | Luminosity | Snow |
|---|---|---|---|---|---|---|---|
| 1777711525 | 21.11° C | 32% | 1018.6 hPa | - | - | - | - |
| 1777710625 | 20.56° C | 35% | 1018.7 hPa | - | - | - | - |
| 1777709725 | 20° C | 38% | 1018.8 hPa | - | - | - | - |
| 1777708825 | 18.89° C | 38% | 1018.9 hPa | - | - | - | - |
| 1777707925 | 18.33° C | 37% | 1019 hPa | - | - | - | - |
| 1777707025 | 17.78° C | 35% | 1019.1 hPa | - | - | - | - |
| 1777706125 | 16.67° C | 39% | 1019.1 hPa | - | - | - | - |
| 1777705225 | 15.56° C | 43% | 1019 hPa | - | - | - | - |
| 1777704325 | 15° C | 52% | 1019.1 hPa | - | - | - | - |
| 1777703424 | 14.44° C | 59% | 1019.2 hPa | - | - | - | - |
| 1777702525 | 13.89° C | 64% | 1019.3 hPa | - | - | - | - |
| 1777701624 | 12.78° C | 71% | 1019.1 hPa | - | - | - | - |
| 1777700725 | 12.22° C | 81% | 1019.1 hPa | - | - | - | - |
| 1777699825 | 11.11° C | 80% | 1019.1 hPa | - | - | - | - |
| 1777698926 | 15.56° C | 41% | 1019.1 hPa | - | - | - | - |
| 1777698025 | 25° C | 31% | 1019.1 hPa | - | - | - | - |
| 1777697125 | 21.11° C | 37% | 1019.2 hPa | - | - | - | - |
| 1777696225 | 20° C | 41% | 1019.2 hPa | - | - | - | - |
| 1777695325 | 17.22° C | 57% | 1019.2 hPa | - | - | - | - |
| 1777694425 | 13.89° C | 100% | 1019.2 hPa | - | - | - | - |
| 1777693524 | 2.22° C | 100% | 1019.2 hPa | - | - | - | - |
| 1777692625 | 1.67° C | 100% | 1019.3 hPa | - | - | - | - |
| 1777691725 | 1.11° C | 100% | 1019.4 hPa | - | - | - | - |
| 1777690825 | 1.11° C | 100% | 1019.4 hPa | - | - | - | - |
| 1777689924 | 1.11° C | 100% | 1019.5 hPa | - | - | - | - |
* Rain since midnight (hover to see other rain measurements)
** Current wind speed in m/s (hover to see current wind gust speed)